Location: *
(34.0486°S, 61.7880°E)
Time: 19:58:21
(UTC+00:00)

CZ-4C R/B - Pass Details

Date: 01 April 2020
Orbit: 637 x 1365 km, 63.4° (Epoch: 28 May)

Event Time Altitude Azimuth Distance (km) Brightness Sun altitude
Exits shadow 22:29:28 33° 86° (E) 2,003 4.3 -44.2°
Drops below altitude 10° 22:34:58 10° 129° (SE) 3,117 5.7 -43.2°
Sets 22:37:47 0° 138° (SE) 3,983 6.4 -42.7°
